Weather observations for the past three days for
Utopia Creek, Indian Mountain LRRS Airport
Imperial (Metric)
Date Time (akdt) Wind (mph) Vis. (mi.) Weather Sky Cond. Temperature (ºF) Relative Humidity Wind Chill (°F) Heat Index (°F) Pressure Precipitation (in)
Air Dwpt 6 hour altimeter (in) sea level (mb) 1 hr 3 hr 6 hr
Max. Min.
15 14:55 S 8 10.00 Mostly Cloudy SCT060 BKN080 54 41.2 62% 29.73 1006.7
15 13:55 S 2 10.00 Mostly Cloudy BKN055 53.2 42.6 67% 29.72 1006.5
15 12:55 SW 3 10.00 Overcast SCT024 OVC028 51.3 41.9 71% 29.72 1006.8
15 11:55 SW 3 10.00 Overcast FEW025 OVC044 51.4 41.4 69% 29.72 1006.5
15 10:55 SW 5 10.00 Mostly Cloudy FEW020 BKN031 50.4 42.6 75% 29.71 1006.2
15 09:55 S 5 10.00 Mostly Cloudy FEW013 BKN039 48.4 43.5 48.6 45.5 83% 47 29.7 1005.8
15 08:55 Vrbl 1 10.00 Mostly Cloudy BKN034 47.8 44.1 87% 29.68 1005.3
15 07:55 S 3 10.00 Mostly Cloudy BKN031 46.9 43.5 88% 29.67 1005.0
15 06:55 SW 2 10.00 Mostly Cloudy BKN035 47.3 44.6 90% 29.66 1004.4
15 05:55 Calm 10.00 Light Rain OVC048 45.9 43.7 92% 29.64 1003.9
15 04:55 SW 3 10.00 Mostly Cloudy BKN035 46.9 43.7 89% 29.62 1003.0
15 03:55 W 2 10.00 Light Showers Rain BKN025 BKN034 46.9 45.7 52.2 46.4 95% 29.61 1002.6 0.01 0.02
15 02:55 NW 1 10.00 Light Rain OVC065 46.6 45.7 97% 29.6 1002.1 0.01
15 01:55 Calm 10.00 Light Rain BKN035 47.5 45.9 94% 29.6 1002.1
15 00:55 Calm 10.00 Mostly Cloudy BKN041 47.3 46.2 96% 29.58 1001.6
14 23:55 Calm 10.00 Mostly Cloudy FEW039 SCT060 SCT075 BKN150 47.1 46 96% 29.56 1001.0
14 22:55 NW 1 10.00 Mostly Cloudy BKN060 49.6 47.7 93% 29.54 1000.4
14 21:55 W 2 10.00 Mostly Cloudy BKN110 52.2 49.3 58.3 51.8 90% 29.52 999.7 0.07
14 20:55 W 1 10.00 Mostly Cloudy BKN075 52 49.6 92% 29.52 999.5 0.01
14 19:55 Calm 10.00 Light Rain OVC055 52.3 49.8 91% 29.52 999.7 0.02
14 18:55 SW 2 10.00 Light Rain OVC050 53.8 50.5 89% 29.52 999.4 0.01 0.05
14 17:55 SW 5 10.00 Light Rain OVC042 54.3 50.2 86% 29.51 999.1 0.02
14 16:55 S 3 10.00 Light Showers Rain OVC040 56.3 49.3 77% 29.5 998.6 0.02
14 15:55 S 3 10.00 Mostly Cloudy BKN039 BKN095 58.3 44.4 59 51.3 60% 29.49 998.1
14 14:55 SW 7 10.00 Mostly Cloudy FEW033 BKN110 58.3 44.8 61% 29.48 997.9
14 13:55 W 2 10.00 Mostly Cloudy BKN028 BKN110 57 46.6 68% 29.48 997.8
14 12:55 Vrbl 5 10.00 Mostly Cloudy SCT021 BKN110 54.9 47.1 75% 29.47 997.7
14 11:55 W 5 10.00 Overcast OVC100 52.5 45.9 78% 29.46 997.5
14 10:55 Vrbl 5 10.00 Mostly Cloudy BKN090 52.2 46.6 81% 29.44 996.7
14 09:55 Vrbl 6 10.00 Mostly Cloudy FEW035 BKN100 51.3 46.8 53.6 51.3 85% 29.43 996.4 0.01
14 08:55 SW 6 10.00 Overcast OVC100 51.4 47.7 87% 29.41 995.7
14 06:55 SE 6 10.00 Mostly Cloudy BKN009 52.7 51.1 94% 29.38 994.5 0.01
14 05:55 S 6 10.00 Mostly Cloudy BKN021 52.9 50.5 92% 29.37 994.1
14 04:55 E 6 10.00 Light Showers Rain BKN031 BKN045 53.2 50.7 91% 29.37 994.2 0.01
14 00:55 Calm 10.00 Light Rain OVC055 54.7 51.1 88% 29.4 995.2 0.03 0.07
13 23:55 SW 1 10.00 Light Rain OVC060 54.7 51.3 88% 29.41 995.4 0.02
13 22:55 Vrbl 2 10.00 Light Rain OVC060 55.2 50.5 84% 29.42 995.7 0.02
13 21:55 Vrbl 3 10.00 Light Showers Rain FEW045 BKN070 57.2 49.8 60.8 55.2 77% 29.44 996.4 0.02
13 20:55 N 3 10.00 Mostly Cloudy BKN042 BKN130 55.8 51.1 84% 29.46 997.4 0.02
13 19:55 Vrbl 5 10.00 Mostly Cloudy BKN050 59.4 49.5 70% 29.48 998.0
13 18:55 Vrbl 6 10.00 Mostly Cloudy SCT055 BKN085 59.9 49.3 68% 29.5 998.7
13 17:55 Vrbl 5 10.00 Mostly Cloudy BKN060 59.7 48.6 67% 29.53 999.7
13 16:55 NE 3 10.00 Overcast BKN055 OVC070 59.4 46.6 63% 29.56 1000.8
13 15:55 E 6 10.00 Overcast OVC046 58.3 47.3 58.5 53.8 67% 29.59 1001.7
13 14:55 S 1 10.00 Overcast OVC041 57.6 45.7 65% 29.61 1002.3
13 13:55 S 1 10.00 Mostly Cloudy SCT033 BKN060 57.4 45.9 66% 29.61 1002.5
13 12:55 SW 2 10.00 Mostly Cloudy BKN034 57.2 45.1 64% 29.63 1003.0
13 11:55 SE 1 10.00 A Few Clouds FEW031 FEW080 57.6 45.9 65% 29.64 1003.1
13 10:55 E 2 10.00 Mostly Cloudy FEW019 BKN033 55.6 48.2 76% 29.64 1003.4
13 09:55 E 3 10.00 Mostly Cloudy BKN039 53.8 48.6 53.8 47.7 83% 29.65 1003.5
13 08:55 Calm 10.00 Mostly Cloudy BKN038 51.3 49.1 92% 29.65 1003.6
13 07:55 Calm 10.00 Overcast OVC036 50.5 49.3 95% 29.65 1003.5
13 06:55 W 1 10.00 Mostly Cloudy FEW044 BKN090 49.6 48 94% 29.65 1003.4
13 05:55 SW 1 10.00 Mostly Cloudy BKN100 BKN130 47.8 47.3 98% 29.65 1003.6
13 04:55 Calm 10.00 Mostly Cloudy BKN110 BKN140 48.2 46.9 95% 29.64 1003.4
13 03:55 Calm 10.00 Mostly Cloudy SCT060 BKN100 BKN110 BKN150 49.1 47.5 61.7 49.3 94% 29.63 1003.0 0.03
13 02:55 NW 1 10.00 Showers Rain OVC050 51.3 46.4 84% 29.64 1003.3 0.03
13 01:55 Vrbl 6 10.00 Light Showers Rain SCT040 BKN065 52.9 45.5 76% 29.64 1003.1
13 00:55 Vrbl 6 10.00 Mostly Cloudy BKN036 BKN080 54.7 45.9 72% 29.62 1002.6
12 22:55 SW 1 10.00 Mostly Cloudy BKN070 58.5 51.6 78% 29.58 1001.0
12 21:55 Calm 10.00 Mostly Cloudy BKN070 61.2 54.1 66.9 61.5 78% 29.59 1001.3
12 20:55 E 1 10.00 Mostly Cloudy BKN080 BKN190 64.6 48.9 57% 29.61 1001.8
12 19:55 S 5 10.00 Partly Cloudy FEW070 SCT160 66 45.1 47% 29.62 1002.4
12 18:55 E 7 10.00 A Few Clouds FEW080 66.2 49.1 54% 29.64 1003.3
12 17:55 E 14 10.00 A Few Clouds FEW080 65.8 47.1 51% 29.65 1003.7
12 16:55 SE 14 10.00 Mostly Cloudy BKN080 65.1 45.7 50% 29.68 1004.6
12 15:55 E 10 10.00 Mostly Cloudy BKN070 64.4 46.9 64.9 57.7 53% 29.7 1005.3
Date Time (akdt) Wind (mph) Vis. (mi.) Weather Sky Cond. Air Dwpt Max. Min. Relative Humidity Wind Chill (°F) Heat Index (°F) altimeter (in) sea level (mb) 1 hr 3 hr 6 hr
6 hour
Temperature (ºF) Pressure Precipitation (in)